Location: *
(42.0175°N, 9.4056°E)
Time: 16:20:01
(UTC+00:00)

Meteor 2-4 Rocket - Pass Details

Date: 25 August 2019
Orbit: 799 x 908 km, 81.2° (Epoch: 22 October)

Event Time Altitude Azimuth Distance (km) Brightness Sun altitude
Rises 19:01:51 0° 354° (N) 3,322 7.3 -10.2°
Reaches altitude 10° 19:04:18 10° 358° (N) 2,384 6.4 -10.6°
Maximum altitude 19:09:35 58° 77° (ENE) 934 3.7 -11.5°
Drops below altitude 10° 19:14:51 10° 157° (SSE) 2,382 5.6 -12.4°
Enters shadow 19:15:12 - 157° (SSE) 2,512 5.7 -12.4°
